Location: Baumgartsau
(48.4586°N, 14.0864°E)
Time: 22:18:35
(UTC+00:00)

SeaSat 1 - Pass Details

Date: 09 April 2020
Orbit: 745 x 746 km, 108.0° (Epoch: 02 June)

Event Time Altitude Azimuth Distance (km) Brightness Sun altitude
Rises 18:11:27 0° 29° (NNE) 3,200 5.6 -4.8°
Reaches altitude 10° 18:13:44 10° 31° (NNE) 2,272 4.8 -5.2°
Maximum altitude 18:18:41 81° 118° (ESE) 762 2.4 -6.0°
Drops below altitude 10° 18:23:37 10° 207° (SSW) 2,258 5.0 -6.7°
Sets 18:25:52 0° 208° (SSW) 3,178 5.8 -7.1°
